Location: *
(48.7358°N, 0.3111°E)
Time: 04:46:59
(UTC+00:00)

BREEZE-M R/B - Pass Details

Date: 22 October 2019
Orbit: 309 x 4552 km, 49.7° (Epoch: 21 November)

Event Time Altitude Azimuth Distance (km) Brightness Sun altitude
Exits shadow 03:43:22 85° 315° (NW) 869 3.6 -27.8°
Maximum altitude 03:43:28 86° 352° (N) 876 3.6 -27.8°
Drops below altitude 10° 03:52:26 10° 82° (E) 3,970 8.2 -26.3°
Sets 03:57:12 0° 83° (E) 5,702 9.3 -25.6°
